Location: Chantarel
(45.1638°N, 1.7873°E)
Time: 17:14:31
(UTC+00:00)

Cosmos 1066 Rocket - Pass Details

Date: 03 March 2021
Orbit: 799 x 894 km, 81.2° (Epoch: 11 April)

Event Time Altitude Azimuth Distance (km) Brightness Sun altitude
Rises 19:35:53 0° 352° (N) 3,439 7.6 -20.6°
Reaches altitude 10° 19:38:20 10° 356° (N) 2,513 6.8 -21.0°
Maximum altitude 19:44:00 61° 76° (ENE) 994 4.2 -22.0°
Enters shadow 19:45:46 42° 135° (SE) 1,232 4.6 -22.3°
